Thermopolis, WY

4:30 PM MDT on August 29, 2016 (GMT -0600)
Thermopolis

Weather History for KTBX - December, 2012

Change the Weather History Date:

Saturday, December 1, 2012

  Actual Average (KWRL) Record (KWRL)
Temperature  
Mean Temperature 38 °F 22 °F  
Max Temperature 42 °F 35 °F 67 °F (1995)
Min Temperature 33 °F 9 °F -24 °F (1985)
Degree Days  
Heating Degree Days 28 43  
Month to date heating degree days 43  
Since 1 July heating degree days 1935  
Cooling Degree Days 0 0  
Month to date cooling degree days 0  
Year to date cooling degree days 535  
Moisture  
Dew Point 27 °F    
Average Humidity 65    
Maximum Humidity 87    
Minimum Humidity 49    
Precipitation  
Precipitation 0.00 in 0.01 in 0.20 in (1964)
Month to date precipitation 0.01  
Year to date precipitation 7.35  
Sea Level Pressure  
Sea Level Pressure 29.98 in    
Wind  
Wind Speed 11 mph ()    
Max Wind Speed 24 mph    
Max Gust Speed 37 mph    
Visibility 10.0 miles    
Events      
T = Trace of Precipitation, MM = Missing Value Source: Averaged Metar Reports

Daily Weather History Graph

Daily Weather History Graph

Search for Another Location

Airport or City:

Trip Planner

Search our weather history database for the weather conditions in past years. The results will help you decide how hot, cold, wet, or windy it might be!

Date:

Astronomy

Dec. 01, 2012 Rise Set
Actual Time 7:26 AM MST 4:37 PM MST
Civil Twilight 6:54 AM MST 5:09 PM MST
Nautical Twilight 6:18 AM MST 5:45 PM MST
Astronomical Twilight 5:44 AM MST 6:19 PM MST
Moon 7:32 PM MST (12/1) 9:40 AM MST (12/1)
Length of Visible Light 10h 15m
Length of Day
9h 11m
Waning Gibbous, 91% of the Moon is Illuminated
Dec 1
Waning Gibbous
Dec 6
Last Quarter
Dec 13
New
Dec 19
First Quarter
Dec 28
Full

Hourly Weather History & Observations

Time (MST) Temp. Windchill Dew Point Humidity Pressure Visibility Wind Dir Wind Speed Gust Speed Precip Events Conditions
12:15 AM 35.6 °F 29.9 °F 28.4 °F 75% 29.91 in 10.0 mi SE 6.9 mph - N/A   Clear
12:35 AM 35.6 °F 29.9 °F 28.4 °F 75% 29.91 in 10.0 mi SE 6.9 mph - N/A   Clear
12:55 AM 35.6 °F 28.6 °F 28.4 °F 75% 29.91 in 10.0 mi SE 9.2 mph - N/A   Clear
1:15 AM 35.6 °F 27.5 °F 28.4 °F 75% 29.90 in 10.0 mi SE 11.5 mph - N/A   Clear
1:35 AM 35.6 °F 28.0 °F 28.4 °F 75% 29.90 in 10.0 mi SSE 10.4 mph - N/A   Scattered Clouds
1:55 AM 35.6 °F 27.1 °F 28.4 °F 75% 29.89 in 10.0 mi SSE 12.7 mph - N/A   Clear
2:15 AM 37.4 °F 29.8 °F 28.4 °F 70% 29.90 in 10.0 mi SSE 11.5 mph - N/A   Clear
2:35 AM 35.6 °F 29.2 °F 28.4 °F 75% 29.91 in 10.0 mi SSE 8.1 mph - N/A   Clear
2:55 AM 35.6 °F 28.0 °F 28.4 °F 75% 29.91 in 10.0 mi SSE 10.4 mph 17.3 mph N/A   Clear
3:15 AM 35.6 °F 27.5 °F 30.2 °F 81% 29.91 in 10.0 mi SE 11.5 mph - N/A   Clear
3:35 AM 33.8 °F 25.3 °F 30.2 °F 87% 29.92 in 10.0 mi SSE 11.5 mph 17.3 mph N/A   Clear
3:55 AM 37.4 °F 30.3 °F 30.2 °F 75% 29.92 in 10.0 mi SSE 10.4 mph 18.4 mph N/A   Clear
4:15 AM 35.6 °F 27.1 °F 32.0 °F 87% 29.93 in 10.0 mi South 12.7 mph - N/A   Clear
4:35 AM 35.6 °F 28.6 °F 32.0 °F 87% 29.93 in 10.0 mi SSE 9.2 mph - N/A   Clear
4:55 AM 37.4 °F 29.8 °F 30.2 °F 75% 29.95 in 10.0 mi SW 11.5 mph - N/A   Clear
5:15 AM 37.4 °F 28.2 °F 28.4 °F 70% 29.94 in 10.0 mi SW 16.1 mph 23.0 mph N/A   Clear
5:35 AM 37.4 °F 29.8 °F 28.4 °F 70% 29.94 in 10.0 mi South 11.5 mph 19.6 mph N/A   Scattered Clouds
5:55 AM 35.6 °F 27.1 °F 30.2 °F 81% 29.95 in 10.0 mi SW 12.7 mph 18.4 mph N/A   Clear
6:15 AM 39.2 °F 29.8 °F 28.4 °F 65% 29.96 in 10.0 mi SW 18.4 mph 26.5 mph N/A   Mostly Cloudy
6:35 AM 37.4 °F 27.8 °F 28.4 °F 70% 29.96 in 10.0 mi SW 17.3 mph 23.0 mph N/A   Scattered Clouds
6:55 AM 37.4 °F 28.2 °F 26.6 °F 65% 29.97 in 10.0 mi SW 16.1 mph 27.6 mph N/A   Scattered Clouds
7:15 AM 37.4 °F 27.8 °F 28.4 °F 70% 29.97 in 10.0 mi SW 17.3 mph - N/A   Scattered Clouds
7:35 AM 37.4 °F 28.9 °F 26.6 °F 65% 29.98 in 10.0 mi SW 13.8 mph - N/A   Scattered Clouds
7:55 AM 37.4 °F 28.5 °F 26.6 °F 65% 29.99 in 10.0 mi SW 15.0 mph - N/A   Overcast
8:15 AM 37.4 °F 27.2 °F 26.6 °F 65% 30.00 in 10.0 mi WSW 19.6 mph - N/A   Mostly Cloudy
8:35 AM 37.4 °F 26.4 °F 23.0 °F 56% 30.00 in 10.0 mi SW 23.0 mph 36.8 mph N/A   Scattered Clouds
8:55 AM 37.4 °F 27.2 °F 24.8 °F 60% 30.00 in 10.0 mi SW 19.6 mph 27.6 mph N/A   Scattered Clouds
9:15 AM 37.4 °F 26.4 °F 23.0 °F 56% 30.01 in 10.0 mi SW 23.0 mph 27.6 mph N/A   Clear
9:35 AM 39.2 °F 28.5 °F 23.0 °F 52% 30.02 in 10.0 mi WSW 24.2 mph 28.8 mph N/A   Clear
9:55 AM 39.2 °F 30.8 °F 23.0 °F 52% 30.04 in 10.0 mi WSW 15.0 mph - N/A   Clear
10:15 AM 39.2 °F 31.6 °F 23.0 °F 52% 30.04 in 10.0 mi WSW 12.7 mph - N/A   Clear
10:35 AM 41.0 °F 33.5 °F 23.0 °F 49% 30.04 in 10.0 mi WSW 13.8 mph - N/A   Clear
10:55 AM 39.2 °F 32.0 °F 23.0 °F 52% 30.04 in 10.0 mi SW 11.5 mph - N/A   Clear
11:15 AM 41.0 °F 33.5 °F 24.8 °F 53% 30.04 in 10.0 mi SW 13.8 mph 25.3 mph N/A   Clear
11:35 AM 41.0 °F 34.3 °F 24.8 °F 53% 30.03 in 10.0 mi SSW 11.5 mph 21.9 mph N/A   Clear
11:55 AM 42.8 °F 37.0 °F 24.8 °F 49% 30.02 in 10.0 mi SSE 10.4 mph 18.4 mph N/A   Clear
12:15 PM 42.8 °F 37.5 °F 24.8 °F 49% 30.02 in 10.0 mi SE 9.2 mph - N/A   Clear
12:35 PM 42.8 °F 37.0 °F 24.8 °F 49% 30.01 in 10.0 mi SE 10.4 mph - N/A   Scattered Clouds
12:55 PM 42.8 °F 36.6 °F 26.6 °F 53% 30.01 in 10.0 mi SE 11.5 mph - N/A   Scattered Clouds
1:15 PM 42.8 °F 35.8 °F 26.6 °F 53% 30.00 in 10.0 mi SSE 13.8 mph - N/A   Clear
1:35 PM 41.0 °F 33.1 °F 24.8 °F 53% 30.00 in 10.0 mi SSE 15.0 mph - N/A   Clear
1:55 PM 41.0 °F 35.2 °F 23.0 °F 49% 30.00 in 10.0 mi SSE 9.2 mph - N/A   Scattered Clouds
2:15 PM 41.0 °F 35.2 °F 23.0 °F 49% 30.00 in 10.0 mi SSE 9.2 mph - N/A   Overcast
2:35 PM 41.0 °F 33.5 °F 23.0 °F 49% 30.00 in 10.0 mi SSE 13.8 mph 21.9 mph N/A   Overcast
2:55 PM 39.2 °F 31.2 °F 28.4 °F 65% 30.01 in 10.0 mi SW 13.8 mph - N/A   Overcast
3:15 PM 39.2 °F 30.2 °F 28.4 °F 65% 30.00 in 10.0 mi SW 17.3 mph 23.0 mph N/A   Mostly Cloudy
3:35 PM 41.0 °F 35.2 °F 26.6 °F 57% 30.00 in 10.0 mi SSW 9.2 mph 24.2 mph N/A   Clear
3:55 PM 41.0 °F 32.8 °F 26.6 °F 57% 30.00 in 10.0 mi South 16.1 mph 20.7 mph N/A   Clear
4:15 PM 39.2 °F 35.0 °F 28.4 °F 65% 30.01 in 10.0 mi ESE 5.8 mph - N/A   Clear
4:35 PM 39.2 °F 33.0 °F 26.6 °F 61% 30.01 in 10.0 mi NE 9.2 mph - N/A   Clear
4:55 PM 39.2 °F 34.2 °F 26.6 °F 61% 30.01 in 10.0 mi SSE 6.9 mph - N/A   Clear
5:35 PM 39.2 °F 31.2 °F 23.0 °F 52% 30.00 in 10.0 mi South 13.8 mph - N/A   Clear
5:55 PM 39.2 °F 33.0 °F 23.0 °F 52% 30.00 in 10.0 mi South 9.2 mph 16.1 mph N/A   Clear
6:35 PM 37.4 °F 32.1 °F 24.8 °F 60% 30.00 in 10.0 mi SSE 6.9 mph - N/A   Clear
6:55 PM 37.4 °F 27.5 °F 26.6 °F 65% 29.99 in 10.0 mi SSE 18.4 mph - N/A   Clear
7:35 PM 35.6 °F 30.7 °F 28.4 °F 75% 30.02 in 10.0 mi ESE 5.8 mph - N/A   Clear
7:55 PM 35.6 °F 29.2 °F 28.4 °F 75% 30.00 in 10.0 mi SE 8.1 mph - N/A   Clear
8:15 PM 35.6 °F 27.5 °F 26.6 °F 70% 30.01 in 10.0 mi SE 11.5 mph - N/A   Clear
8:35 PM 37.4 °F 28.5 °F 26.6 °F 65% 30.00 in 10.0 mi SSE 15.0 mph 21.9 mph N/A   Clear
8:55 PM 37.4 °F 31.4 °F 26.6 °F 65% 30.00 in 10.0 mi SSE 8.1 mph 19.6 mph N/A   Clear
9:15 PM 37.4 °F 32.8 °F 26.6 °F 65% 30.01 in 10.0 mi SSE 5.8 mph - N/A   Clear
9:35 PM 37.4 °F 32.1 °F 26.6 °F 65% 30.00 in 10.0 mi SSE 6.9 mph - N/A   Clear
9:55 PM 37.4 °F 33.8 °F 26.6 °F 65% 30.00 in 10.0 mi SSE 4.6 mph - N/A   Clear
10:15 PM 35.6 °F 26.6 °F 26.6 °F 70% 29.99 in 10.0 mi SSE 13.8 mph - N/A   Clear
10:35 PM 35.6 °F 26.6 °F 26.6 °F 70% 29.99 in 10.0 mi SSE 13.8 mph 23.0 mph N/A   Clear
10:55 PM 37.4 °F 28.5 °F 26.6 °F 65% 29.98 in 10.0 mi SSE 15.0 mph 25.3 mph N/A   Clear
11:15 PM 35.6 °F 25.5 °F 26.6 °F 70% 29.98 in 10.0 mi South 17.3 mph - N/A   Clear
11:35 PM 35.6 °F 27.1 °F 26.6 °F 70% 29.99 in 10.0 mi SSE 12.7 mph 20.7 mph N/A   Clear
11:55 PM 35.6 °F 28.6 °F 26.6 °F 70% 29.99 in 10.0 mi SSE 9.2 mph - N/A   Clear